Tracking 19570 objects as of 21-Feb-2019
HD Live streaming from Space Station
objects crossing your sky now

GORIZONT 13

Track GORIZONT 13 now!
GORIZONT 13 is classified as:


NORAD ID: 17083
Int'l Code: 1986-090A
Perigee: 36,730.1 km
Apogee: 36,905.5 km
Inclination: 15.6 °
Period: 1,488.7 minutes
Semi major axis: 43188 km
RCS: 2.5139 m2 (large)
Launch date: November 18, 1986
Source: Commonwealth of Independent States (former USSR) (CIS)
Launch site: TYURATAM MISSILE AND SPACE COMPLEX (TTMTR)
aabbcc
Your satellite tracking list
Your tracking list is empty




NASA's NSSDC Master Catalog

Two Line Element Set (TLE):
1 17083U 86090A   19051.68068979 -.00000178  00000-0  00000+0 0  9997
2 17083  15.5657 349.4977 0020308 310.0401 240.0984  0.96726804 92803
Source of the keplerian elements: AFSPC